INSAT-3DR

Last updated on Sun Jun 21 2026 00:02:46 GMT+0000 (Coordinated Universal Time)

1 41752U 16054A 26171.40667204 -.00000081 00000+0 00000+0 0 9999 2 41752 0.1148 86.2468 0010425 187.4441 215.2920 1.00271300 35856
UTC large
Height (km)
Speed (km/s)
/
Latitude / Longitude
Inclination (degrees)
Orbital Period (minutes)
Azimuth
Elevation
Range (km)
Doppler Factor

Next 0 passes for location: London (51.5072 / 0.1276)

No passes found over London.
INSAT-3DR